WA7BMK Weather Reports


Display with metric or nautical units.
time (UTC)temp
F
wind
direction
speed
MPH
gust
MPH
rain 1hr
in
rain 24hr
in
rain mn
in
humidity
%
barometer
mb
20260830234549 71 280 2.0 4.0 0.00 0.00 0.00 49 1018.9
20260830233055 72 271 0.0 6.0 0.00 0.00 0.00 50 1018.9
20260830231545 72 274 2.0 5.0 0.00 0.00 0.00 50 1019.2
20260830230043 71 344 1.0 6.0 0.00 0.00 0.00 51 1019.2
20260830224539 71 263 1.0 7.0 0.00 0.00 0.00 54 1019.3
20260830223037 71 268 1.0 5.0 0.00 0.00 0.00 53 1019.4
20260830221549 70 336 1.0 8.0 0.00 0.00 0.00 54 1019.6
20260830220058 71 303 1.0 8.0 0.00 0.00 0.00 54 1019.6
20260830214542 69 131 2.0 5.0 0.00 0.00 0.00 57 1019.8
20260830213038 68 0 1.0 4.0 0.00 0.00 0.00 58 1020.0
20260830211548 67 0 2.0 5.0 0.00 0.00 0.00 61 1020.1
20260830210043 67 100 2.0 7.0 0.00 0.00 0.00 61 1020.2
20260830204553 66 169 0.0 3.0 0.00 0.00 0.00 62 1020.3
20260830203040 67 197 1.0 6.0 0.00 0.00 0.00 61 1020.4
20260830201556 67 0 1.0 4.0 0.00 0.00 0.00 59 1020.5
20260830200045 67 306 0.0 3.0 0.00 0.00 0.00 61 1020.6
20260830194546 66 0 2.0 5.0 0.00 0.00 0.00 63 1020.7
20260830193040 66 275 1.0 4.0 0.00 0.00 0.00 65 1020.8
20260830191614 64 260 0.0 4.0 0.00 0.00 0.00 68 1020.9
20260830190055 62 338 1.0 4.0 0.00 0.00 0.00 71 1020.9
20260830184543 62 0 1.0 5.0 0.00 0.00 0.00 71 1020.9
20260830183044 61 114 0.0 7.0 0.00 0.00 0.00 73 1021.1
20260830181542 61 211 0.0 3.0 0.00 0.00 0.00 74 1021.1
20260830180044 60 0 1.0 4.0 0.00 0.00 0.00 75 1021.0
20260830174549 60 0 0.0 4.0 0.00 0.00 0.00 76 1021.0
20260830173049 60 153 0.0 4.0 0.00 0.00 0.00 75 1020.9
20260830171546 60 0 1.0 8.0 0.00 0.00 0.00 75 1020.8
20260830170044 58 360 0.0 2.0 0.00 0.00 0.00 78 1020.8
20260830164539 58 0 0.0 3.0 0.00 0.00 0.00 79 1020.8
20260830163042 57 0 0.0 8.0 0.00 0.00 0.00 79 1020.8
20260830161553 57 0 1.0 4.0 0.00 0.00 0.00 79 1020.9
20260830160044 57 0 2.0 5.0 0.00 0.00 0.00 80 1020.9
20260830154541 56 360 0.0 5.0 0.00 0.06 0.00 81 1021.0
20260830153040 55 360 2.0 4.0 0.00 0.06 0.00 80 1020.9
20260830151541 55 0 0.0 5.0 0.00 0.06 0.00 81 1020.8
20260830150044 54 148 2.0 5.0 0.00 0.06 0.00 81 1020.9
20260830144545 54 136 0.0 3.0 0.00 0.06 0.00 81 1020.8
20260830143046 54 173 1.0 3.0 0.00 0.06 0.00 81 1020.7
20260830141541 54 175 1.0 4.0 0.00 0.06 0.00 81 1020.5
20260830140041 53 0 0.0 2.0 0.00 0.06 0.00 81 1020.4
20260830134543 53 0 0.0 3.0 0.00 0.07 0.00 82 1020.4
20260830133058 53 155 1.0 4.0 0.00 0.07 0.00 82 1020.4
20260830131552 53 0 0.0 4.0 0.00 0.07 0.00 82 1020.4
20260830130055 53 0 0.0 0.0 0.00 0.07 0.00 84 1020.3
20260830124545 53 0 0.0 1.0 0.00 0.07 0.00 84 1020.4
20260830123042 53 0 0.0 0.0 0.00 0.07 0.00 84 1020.3
20260830121541 53 0 0.0 2.0 0.00 0.07 0.00 84 1020.4
20260830120058 53 0 0.0 2.0 0.00 0.07 0.00 84 1020.4
20260830114544 53 0 0.0 0.0 0.00 0.07 0.00 84 1020.3
20260830113040 53 0 0.0 2.0 0.00 0.07 0.00 84 1020.2
20260830111542 53 0 0.0 2.0 0.00 0.07 0.00 85 1020.1
20260830110039 52 0 1.0 3.0 0.00 0.07 0.00 86 1020.0
20260830104542 51 0 0.0 2.0 0.00 0.07 0.00 88 1020.2
20260830103040 51 0 0.0 1.0 0.00 0.07 0.00 88 1020.2
20260830101540 50 0 0.0 0.0 0.00 0.07 0.00 87 1020.2
20260830100041 51 0 0.0 0.0 0.00 0.07 0.00 87 1020.0
20260830094542 51 0 0.0 0.0 0.00 0.07 0.00 87 1019.9
20260830093038 51 0 0.0 0.0 0.00 0.07 0.00 86 1020.0
20260830091540 52 0 0.0 1.0 0.00 0.07 0.00 85 1020.0
20260830090039 52 0 0.0 0.0 0.00 0.07 0.00 85 1020.1
20260830084543 53 0 0.0 1.0 0.00 0.07 0.00 84 1020.0
20260830083049 53 0 0.0 3.0 0.00 0.07 0.00 83 1020.1
20260830081541 54 0 0.0 3.0 0.00 0.07 0.00 83 1020.1
20260830080042 54 0 0.0 2.0 0.00 0.07 0.00 83 1020.0
20260830074542 54 154 1.0 3.0 0.00 0.07 0.00 82 1020.0
20260830073043 55 0 0.0 6.0 0.00 0.07 0.00 81 1020.0
20260830071542 55 140 0.0 4.0 0.00 0.07 0.00 81 1020.0
20260830070104 55 192 0.0 3.0 0.00 0.07 0.00 80 1019.9
20260830064539 56 221 1.0 4.0 0.00 0.07 0.07 79 1019.8
20260830063044 56 0 1.0 7.0 0.00 0.07 0.07 78 1019.9
20260830061542 57 202 1.0 4.0 0.00 0.07 0.07 77 1019.8
20260830060050 57 123 0.0 2.0 0.00 0.07 0.07 76 1019.9
20260830054542 57 166 0.0 4.0 0.00 0.07 0.07 75 1020.0
20260830053043 58 132 1.0 6.0 0.00 0.07 0.07 74 1020.0
20260830051545 58 199 1.0 5.0 0.00 0.07 0.07 73 1019.9
20260830050041 59 264 0.0 4.0 0.00 0.07 0.07 72 1019.9
20260830044547 59 244 1.0 7.0 0.00 0.07 0.07 72 1019.8
20260830043039 59 196 0.0 4.0 0.00 0.07 0.07 72 1019.8
20260830041556 60 0 0.0 2.0 0.00 0.07 0.07 71 1019.7
20260830040050 60 0 0.0 3.0 0.00 0.07 0.07 69 1019.4
20260830034539 60 0 0.0 4.0 0.00 0.07 0.07 68 1019.0
20260830033041 61 0 0.0 3.0 0.00 0.07 0.07 66 1019.0
20260830031542 62 360 1.0 5.0 0.00 0.07 0.07 65 1018.8
20260830030043 63 360 0.0 4.0 0.00 0.07 0.07 63 1018.6
20260830024553 63 360 2.0 8.0 0.00 0.07 0.07 62 1018.5
20260830023041 64 0 0.0 4.0 0.00 0.07 0.07 60 1018.4
20260830021539 66 346 1.0 5.0 0.00 0.07 0.07 58 1018.3
20260830020047 66 287 2.0 10.0 0.00 0.07 0.07 58 1018.2
20260830014540 66 352 1.0 10.0 0.00 0.07 0.07 57 1018.1
20260830013044 66 334 2.0 10.0 0.00 0.07 0.07 56 1018.2
20260830011542 66 278 1.0 9.0 0.00 0.07 0.07 57 1018.2
20260830010046 66 248 1.0 8.0 0.00 0.07 0.07 57 1018.2
20260830004547 67 312 1.0 7.0 0.00 0.07 0.07 57 1018.1
20260830003051 68 263 1.0 9.0 0.00 0.07 0.07 54 1018.1
20260830001541 70 293 2.0 11.0 0.00 0.07 0.07 53 1018.1
20260830000047 71 296 2.0 8.0 0.00 0.07 0.07 50 1017.9